[[{"header":{"parameterUnit":"m.s-1","parameterCategory":1,"la1":30.2991,"la2":30.254,"lo1":-89.0895,"lo2":-89.0444,"dy":0.0017,"dx":0.0017,"nx":28,"ny":28,"refTime":"2023-03-22T21:00:00:Z","depth":0,"parameterNumber":2,"parameterNumberName":"U-component_of_WINDS"},"data":[0,0,0,0,0,0,0,0,0,0,0,0,0,0,0,0,0,0,0,0,0,0,0,0,0,0,0,0,0,0,0,0,0,0,0,0,0,0,0,0,0,0,0,0,0,0,0,0,0,0,0,0,0,0,0,0,0,0,-2.7287,-2.7287,0,-2.7277,-2.7277,-2.7277,-2.7239,-2.7238,-2.7237,-2.7236,-2.7226,-2.7227,-2.7227,0,0,0,0,0,0,0,0,0,0,0,0,0,-2.7275,-2.7275,-2.7287,-2.7287,-2.7287,-2.7277,-2.7277,-2.7277,-2.7239,-2.7238,-2.7237,-2.7236,-2.7226,-2.7227,-2.7227,0,0,0,0,0,0,0,0,0,0,0,0,0,-2.7274,-2.7275,-2.7287,-2.7267,-2.7265,-2.7277,-2.7277,-2.7277,-2.7239,-2.7238,-2.7236,-2.7235,-2.7226,-2.7227,-2.7228,-2.7259,0,0,-2.723,-2.723,0,0,0,0,0,0,0,0,-2.7274,-2.7274,-2.727,-2.7268,-2.7266,-2.7258,-2.7269,-2.7271,-2.7239,-2.7249,-2.7236,-2.7235,-2.7238,-2.7238,-2.7239,-2.7259,-2.7258,-2.723,-2.7231,-2.7231,-2.7231,0,0,0,0,0,0,0,-2.7274,-2.7275,-2.7283,-2.727,-2.7268,-2.7258,-2.7257,-2.7269,-2.7251,-2.7248,-2.7245,-2.7244,-2.7237,-2.7238,-2.7238,-2.7258,-2.723,-2.7231,-2.7231,-2.7232,-2.7304,-2.7305,0,0,0,0,0,0,-2.7277,-2.7275,-2.7284,-2.7283,-2.7267,-2.726,-2.7258,-2.7262,-2.7251,-2.7248,-2.7246,-2.7243,-2.7237,-2.7237,-2.7238,-2.7273,-2.7231,-2.7232,-2.7232,-2.7302,-2.7304,-2.7305,0,0,0,0,0,0,-2.7277,-2.7278,-2.7284,-2.7278,-2.7278,-2.7261,-2.7266,-2.7262,-2.7264,-2.7249,-2.7246,-2.725,-2.7236,-2.7237,-2.7254,-2.7272,-2.7232,-2.7233,-2.7301,-2.7303,-2.7305,-2.7345,0,0,0,0,0,0,-2.7277,-2.7278,-2.729,-2.7279,-2.7279,-2.73,-2.7267,-2.7263,-2.7265,-2.7261,-2.7252,-2.725,-2.7235,-2.7253,-2.7255,-2.7273,-2.7234,-2.7299,-2.7302,-2.7304,-2.7342,-2.7349,-2.7354,0,0,0,0,0,-2.7276,-2.7302,-2.729,-2.7292,-2.7293,-2.7302,-2.7302,-2.7284,-2.7267,-2.7278,-2.7269,-2.725,-2.7271,-2.7255,-2.7257,-2.7276,-2.7297,-2.7301,-2.7304,-2.734,-2.7347,-2.7354,0,0,0,0,0,0,-2.7315,-2.73,-2.7287,-2.731,-2.7307,-2.7295,-2.7309,-2.7293,-2.7295,-2.7291,-2.727,-2.7269,-2.7289,-2.7284,-2.7267,-2.7306,-2.7281,-2.7285,-2.7308,-2.7315,-2.7321,-2.7321,-2.7234,0,0,0,0,0,-2.7326,-2.7335,-2.7321,-2.7342,-2.7342,-2.7326,-2.7329,-2.7316,-2.7312,-2.7311,-2.7303,-2.7301,-2.7306,-2.7311,-2.7315,-2.7342,-2.7339,-2.7356,-2.7362,-2.7367,-2.737,-2.7383,-2.739,-2.7316,-2.7316,-2.7316,0,0,-2.735,-2.7342,-2.7349,-2.735,-2.7346,-2.7355,-2.7325,-2.7336,-2.7342,-2.7313,-2.7328,-2.7323,-2.7319,-2.7341,-2.735,-2.7337,-2.739,-2.7371,-2.7375,-2.7375,-2.7387,-2.7394,-2.7401,-2.7318,-2.7318,-2.7317,0,0,-2.7396,-2.7392,-2.7409,-2.7406,-2.7401,-2.739,-2.7395,-2.7385,-2.738,-2.7396,-2.7374,-2.7382,-2.7392,-2.739,-2.7391,-2.7438,-2.742,-2.744,-2.747,-2.7484,-2.7489,-2.7495,-2.751,-2.7517,-2.7444,-2.7444,-2.7444,0,-2.7425,-2.7438,-2.742,-2.7432,-2.7433,-2.7407,-2.7424,-2.7423,-2.742,-2.7421,-2.7407,-2.742,-2.7416,-2.7437,-2.7449,-2.745,-2.7454,-2.744,-2.749,-2.7495,-2.7499,-2.7514,-2.7521,-2.7446,-2.7446,-2.7445,-2.7445,0,-2.7473,-2.7483,-2.7497,-2.7495,-2.7498,-2.7513,-2.7497,-2.7503,-2.749,-2.7481,-2.7497,-2.7491,-2.7494,-2.7499,-2.7487,-2.7518,-2.751,-2.7494,-2.7468,-2.7509,-2.7523,-2.7528,-2.7449,-2.7448,-2.7448,-2.7447,0,0,-2.7542,-2.7531,-2.7536,-2.7535,-2.7528,-2.7535,-2.7549,-2.7552,-2.7556,-2.7556,-2.7567,-2.7577,-2.7562,-2.7562,-2.755,-2.7562,-2.7599,-2.7544,-2.7543,-2.7553,-2.7633,-2.7644,-2.7651,-2.7588,-2.7589,-2.759,-2.7633,0,-2.7585,-2.7608,-2.7593,-2.7618,-2.7626,-2.7602,-2.7614,-2.7612,-2.7605,-2.7611,-2.7603,-2.761,-2.7589,-2.7589,-2.7601,-2.7592,-2.7614,-2.7589,-2.7597,-2.7598,-2.7597,-2.7659,-2.7671,-2.7711,-2.7638,-2.7639,-2.764,0,-2.7638,-2.764,-2.7666,-2.7658,-2.7661,-2.7672,-2.7673,-2.768,-2.7677,-2.767,-2.7672,-2.7656,-2.767,-2.7646,-2.7664,-2.7647,-2.765,-2.7647,-2.7648,-2.7647,-2.762,-2.7658,-2.7724,-2.7729,-2.7648,-2.7648,-2.7647,0,-2.7684,-2.7693,-2.771,-2.7709,-2.7701,-2.7709,-2.7706,-2.7702,-2.7705,-2.7707,-2.7708,-2.7712,-2.7713,-2.7717,-2.7703,-2.7687,-2.7723,-2.7698,-2.7717,-2.7718,-2.7724,-2.7724,-2.779,-2.7729,-2.7729,-2.7729,-2.7729,0,-2.7733,-2.7749,-2.773,-2.774,-2.7758,-2.7741,-2.7759,-2.7754,-2.7751,-2.7759,-2.774,-2.7749,-2.7731,-2.7738,-2.7727,-2.7744,-2.7745,-2.774,-2.7737,-2.7741,-2.7741,-2.7741,-2.7737,-2.773,-2.773,-2.773,-2.7729,0,-2.7786,-2.7774,-2.779,-2.7781,-2.778,-2.7793,-2.7785,-2.7795,-2.7787,-2.7798,-2.78,-2.7787,-2.7794,-2.7781,-2.7787,-2.778,-2.7802,-2.7796,-2.7803,-2.78,-2.782,-2.7818,-2.7888,-2.7896,-2.7831,-2.7831,-2.7832,0,-2.7817,-2.7829,-2.7822,-2.7826,-2.7824,-2.7832,-2.7835,-2.7819,-2.7823,-2.7821,-2.783,-2.7836,-2.7839,-2.7852,-2.7844,-2.7848,-2.784,-2.7865,-2.7841,-2.7844,-2.7839,-2.7838,-2.7839,-2.7869,-2.787,-2.787,-2.7871,0,-2.7873,-2.7867,-2.7871,-2.7875,-2.7879,-2.788,-2.788,-2.7885,-2.7869,-2.7874,-2.7882,-2.7884,-2.7891,-2.7896,-2.7899,-2.7896,-2.788,-2.7879,-2.7883,-2.7886,-2.789,-2.7887,-2.7815,-2.7877,-2.7876,-2.7876,-2.7875,-2.7875,-2.7915,-2.7925,-2.7921,-2.7927,-2.7926,-2.7927,-2.7935,-2.7928,-2.7934,-2.7937,-2.7928,-2.7938,-2.7935,-2.7937,-2.7936,-2.7943,-2.7932,-2.7939,-2.794,-2.7942,-2.7944,-2.789,-2.7943,-2.7943,-2.7943,-2.7943,-2.7943,0,-2.7969,-2.7966,-2.7972,-2.7973,-2.7978,-2.7964,-2.7964,-2.7969,-2.7977,-2.7976,-2.798,-2.7989,-2.7994,-2.7987,-2.7991,-2.7999,-2.7992,-2.8,-2.7998,-2.7998,-2.7954,-2.7949,-2.8006,-2.8006,-2.8006,-2.8006,-2.8006,-2.8005,-2.7997,-2.8012,-2.8006,-2.8021,-2.8018,-2.8026,-2.8027,-2.8028,-2.8027,-2.8038,-2.8042,-2.8038,-2.8034,-2.8038,-2.8043,-2.8041,-2.8043,-2.8053,-2.8048,-2.8007,-2.8001,-2.7995,-2.799,-2.8054,-2.8054,-2.8091,-2.8092,-2.8092]},{"header":{"parameterUnit":"m.s-1","parameterCategory":1,"la1":30.2991,"la2":30.254,"lo1":-89.0895,"lo2":-89.0444,"dy":0.0017,"dx":0.0017,"nx":28,"ny":28,"refTime":"2023-03-22T21:00:00:Z","depth":0,"parameterNumber":3,"parameterNumberName":"V-component_of_WINDS"},"data":[0,0,0,0,0,0,0,0,0,0,0,0,0,0,0,0,0,0,0,0,0,0,0,0,0,0,0,0,0,0,0,0,0,0,0,0,0,0,0,0,0,0,0,0,0,0,0,0,0,0,0,0,0,0,0,0,0,0,2.7164,2.7163,0,2.7059,2.7057,2.7056,2.7016,2.7016,2.7016,2.7017,2.6903,2.69,2.6896,0,0,0,0,0,0,0,0,0,0,0,0,0,2.7328,2.7325,2.7164,2.7163,2.7162,2.7059,2.7057,2.7056,2.7016,2.7016,2.7016,2.7017,2.6904,2.69,2.6896,0,0,0,0,0,0,0,0,0,0,0,0,0,2.7243,2.7324,2.7164,2.7129,2.7125,2.7059,2.7057,2.7055,2.7015,2.7016,2.7016,2.7017,2.6905,2.6901,2.6896,2.6855,0,0,2.688,2.6878,0,0,0,0,0,0,0,0,2.7248,2.7237,2.7136,2.7132,2.7127,2.7051,2.7073,2.6988,2.7015,2.7057,2.7017,2.7017,2.6951,2.6943,2.6922,2.685,2.6845,2.688,2.6877,2.6875,2.6873,0,0,0,0,0,0,0,2.7254,2.7241,2.7122,2.7134,2.7129,2.7118,2.7106,2.7057,2.7002,2.7053,2.705,2.7038,2.6949,2.6927,2.6919,2.6843,2.688,2.6876,2.6873,2.6871,2.6736,2.6735,0,0,0,0,0,0,2.7266,2.7246,2.7125,2.7119,2.719,2.7114,2.7101,2.7075,2.7003,2.6993,2.7038,2.7037,2.6935,2.6924,2.6914,2.6864,2.6875,2.687,2.6867,2.6736,2.6735,2.6735,0,0,0,0,0,0,2.727,2.7256,2.713,2.7182,2.7165,2.7111,2.7081,2.7072,2.705,2.6992,2.6981,2.7025,2.6935,2.6921,2.6871,2.6859,2.6868,2.6863,2.6737,2.6736,2.6735,2.6762,0,0,0,0,0,0,2.7275,2.7257,2.7242,2.7182,2.7163,2.7089,2.708,2.707,2.7042,2.7039,2.6977,2.6967,2.6934,2.6879,2.6866,2.6853,2.6859,2.6738,2.6736,2.6735,2.6761,2.6762,2.6762,0,0,0,0,0,2.7281,2.7252,2.7241,2.7227,2.7142,2.7088,2.7077,2.7041,2.7041,2.7025,2.6988,2.6969,2.6863,2.6874,2.6859,2.6844,2.6738,2.6737,2.6735,2.6761,2.6762,2.6762,0,0,0,0,0,0,2.7309,2.7243,2.7231,2.7182,2.7142,2.7082,2.706,2.7043,2.7,2.6999,2.6955,2.6941,2.6895,2.6864,2.6878,2.6803,2.6799,2.6795,2.6824,2.6824,2.6824,2.6832,2.6855,0,0,0,0,0,2.731,2.7273,2.7217,2.7179,2.716,2.7114,2.7089,2.7066,2.7021,2.7003,2.6962,2.6919,2.6876,2.6848,2.6805,2.6758,2.6744,2.674,2.674,2.6741,2.6737,2.6711,2.6709,2.673,2.673,2.673,0,0,2.731,2.727,2.7249,2.7184,2.715,2.7112,2.7099,2.7059,2.7031,2.6996,2.6947,2.6916,2.6865,2.6816,2.6793,2.6789,2.6729,2.6739,2.674,2.6736,2.671,2.6708,2.6706,2.6729,2.673,2.673,0,0,2.7292,2.7258,2.7224,2.7191,2.7141,2.7111,2.7103,2.7047,2.7026,2.6976,2.6951,2.6915,2.6842,2.6807,2.678,2.6753,2.6734,2.674,2.674,2.6716,2.6714,2.6712,2.6703,2.6701,2.6737,2.6737,2.6737,0,2.7298,2.7242,2.7208,2.717,2.7143,2.7113,2.7078,2.7047,2.6985,2.6966,2.6964,2.6874,2.6837,2.6781,2.6775,2.6753,2.6743,2.6746,2.6717,2.6715,2.6713,2.6704,2.6701,2.6738,2.6738,2.6738,2.6738,0,2.7253,2.7214,2.7193,2.7136,2.7106,2.707,2.703,2.7004,2.6984,2.6955,2.6905,2.6861,2.681,2.6795,2.6773,2.6736,2.6736,2.6726,2.6722,2.6713,2.6704,2.67,2.674,2.6739,2.6739,2.6739,0,0,2.7247,2.7175,2.7168,2.7143,2.7087,2.7056,2.7019,2.6971,2.695,2.6909,2.6877,2.6817,2.6809,2.6778,2.6753,2.6732,2.6715,2.6725,2.6723,2.6725,2.6672,2.6679,2.6676,2.6703,2.6702,2.6701,2.6676,0,2.7221,2.7156,2.7126,2.7073,2.7037,2.7011,2.6979,2.6941,2.6913,2.6878,2.6846,2.6806,2.6797,2.6779,2.6757,2.6722,2.6703,2.6723,2.6672,2.667,2.6685,2.6671,2.6678,2.6656,2.6672,2.6672,2.6671,0,2.7182,2.7145,2.7089,2.7041,2.7024,2.6996,2.6952,2.6919,2.6876,2.6857,2.6825,2.6801,2.6761,2.6762,2.6706,2.672,2.6698,2.6678,2.6676,2.6669,2.667,2.6663,2.6648,2.6645,2.6665,2.6666,2.6666,0,2.7184,2.7119,2.7079,2.7058,2.7,2.6981,2.6955,2.6913,2.6887,2.6848,2.6831,2.6786,2.6762,2.6728,2.6693,2.6697,2.6642,2.6638,2.6625,2.6626,2.6613,2.6614,2.6594,2.6599,2.6599,2.6599,2.66,0,2.7159,2.7126,2.7079,2.7054,2.7017,2.6983,2.6947,2.6919,2.6883,2.6851,2.6825,2.6796,2.6752,2.6717,2.669,2.6649,2.6638,2.6621,2.6614,2.6623,2.6626,2.6607,2.6608,2.6599,2.6599,2.6599,2.6599,0,2.7154,2.7121,2.7075,2.7025,2.7012,2.6987,2.6944,2.6918,2.6891,2.6851,2.684,2.6796,2.6754,2.6717,2.6661,2.6643,2.6601,2.6592,2.6616,2.6612,2.6601,2.6602,2.6568,2.6562,2.6572,2.6572,2.6571,0,2.714,2.7115,2.7064,2.7042,2.7018,2.6983,2.6957,2.6923,2.6898,2.6849,2.6829,2.6786,2.675,2.6684,2.6646,2.6604,2.6594,2.6585,2.6587,2.6598,2.6594,2.6596,2.6594,2.6585,2.6585,2.6585,2.6585,0,2.7119,2.7105,2.707,2.703,2.7001,2.6968,2.6933,2.6917,2.6876,2.6849,2.6807,2.678,2.6725,2.6682,2.6636,2.6609,2.659,2.6585,2.658,2.6588,2.6603,2.6595,2.6616,2.6585,2.6585,2.6585,2.6585,2.6585,2.7108,2.7086,2.7047,2.701,2.6981,2.6951,2.6925,2.6896,2.6861,2.6815,2.6797,2.6755,2.6714,2.6651,2.6624,2.659,2.6587,2.6579,2.6576,2.6575,2.6577,2.661,2.6582,2.6582,2.6581,2.6581,2.6581,0,2.7086,2.7061,2.7027,2.6982,2.6953,2.6941,2.6903,2.6879,2.6843,2.6808,2.6774,2.6727,2.6687,2.6648,2.6605,2.6586,2.6576,2.6575,2.6576,2.657,2.6582,2.6591,2.6584,2.6584,2.6584,2.6584,2.6584,2.6584,2.7071,2.7033,2.7015,2.6962,2.6936,2.6897,2.6876,2.6848,2.682,2.677,2.6737,2.6713,2.6676,2.6631,2.6594,2.6583,2.6569,2.657,2.6558,2.6569,2.6569,2.6569,2.6578,2.6568,2.6568,2.6548,2.6548,2.6548]}]]